Flag for Canada Weather past 2 weeks in Newmarket, Ontario, Canada

Now
68 °F

Sunny.


Feels Like: 68 °F
Forecast: 62 / 76 °F
Wind: 9 mph from West

Location: Borden

Current Time: Aug 3, 2015 at 10:03:38 AM

Latest Report: Aug 3, 2015 at 9:00 AM


Visibility: 9 mi

Pressure: 29.69 "Hg

Humidity: 83%

Dew point: 63 °F

Location of NewmarketLocation

Historic Weather in Newmarket — Graph

°F

Newmarket temperature yesterday

Maximum temperature yesterday: 86 °F (at 3:00 PM)
Minimum temperature yesterday: 52 °F (at 4:00 AM)
Average temperature yesterday: 65 °F

Past Weeks' High & Low Weather Summary

 TemperatureHumidityPressure
High93 °F (Jul 29, 5:00 PM)100% (Jul 20, 6:00 AM)30.04 "Hg (Jul 20, 6:00 AM)
Low45 °F (Jul 23, 4:00 AM)33% (Jul 30, 5:00 PM)29.58 "Hg (Aug 3, 12:00 AM)
Average70 °F69%29.85 "Hg
* Reported Jul 19 9:00 AM — Aug 3 9:00 AM, Newmarket, Weather by CustomWeather, © 2015

Note: Actual official high and low records may vary slightly from our data, if they occured in-between our weather recording intervals... More about our weather records

Advertising

Newmarket weather history for previous 24 hours

 ConditionsComfort  
Time TempWeatherWind HumidityBarometerVisibility
9:00 AM
Mon, Aug 3
68 °FSunny.9 mph83%29.69 "Hg9 mi
8:00 AM64 °FPartly sunny.12 mph94%29.67 "Hg9 mi
7:03 AM63 °FMostly cloudy.14 mph94%29.67 "Hg9 mi
6:00 AM63 °FOvercast.15 mph88%29.65 "Hg9 mi
5:00 AM63 °FOvercast.7 mph88%29.65 "Hg9 mi
4:00 AM63 °FOvercast.6 mph94%29.63 "Hg9 mi
3:00 AM63 °FPassing clouds.2 mph94%29.61 "Hg9 mi
2:50 AM63 °FMostly cloudy.2 mph94%29.62 "Hg9 mi
2:00 AM63 °FLight rain. Overcast.3 mph94%29.60 "Hg9 mi
1:00 AM63 °FLight rain. Overcast.12 mph94%29.60 "Hg9 mi
12:00 AM63 °FLight rain. Passing clouds.8 mph94%29.58 "Hg9 mi
11:00 PM
Sun, Aug 2
63 °FLight rain. Mostly cloudy.8 mph94%29.63 "Hg9 mi
10:04 PM61 °FHeavy rain. Fog.3 mph100%29.69 "Hg3 mi
9:55 PM61 °FHeavy rain. Dense fog.9 mph100%29.69 "Hg1 mi
9:00 PM63 °FMostly cloudy.8 mph94%29.65 "Hg9 mi
8:50 PM61 °FMostly cloudy.9 mph100%29.67 "Hg9 mi
8:00 PM61 °FCool.7 mph94%29.67 "HgN/A
7:00 PM63 °FPassing clouds.10 mph94%29.72 "Hg9 mi
6:00 PM61 °FPartly sunny.6 mph94%29.72 "Hg9 mi
5:03 PM59 °FDense fog.14 mph94%29.78 "Hg2 mi
4:00 PM70 °FPartly sunny.12 mph64%29.76 "Hg9 mi
3:00 PM86 °FSunny.15 mph35%29.71 "Hg9 mi
2:00 PM84 °FPassing clouds.14 mph35%29.74 "Hg9 mi
1:00 PM84 °FSunny.17 mph33%29.76 "Hg9 mi
12:00 PM82 °FSunny.17 mph35%29.78 "Hg9 mi
11:00 AM81 °FSunny.15 mph39%29.79 "Hg9 mi
10:00 AM77 °FSunny.14 mph47%29.82 "Hg9 mi
Weather by CustomWeather, © 2015

See weather overviewHow to use our weather pages